This demonstration page uses our WeatherBlox Daily Observations layout. Learn more.

Left ArrowRight Arrow

38.83388, -104.82136

Hourly Observations for March 24, 2018

Temp ( °F °C ) Dew Point ( °F °C ) Humidity (%) Winds ( mph kmh ) Pressure ( in mb ) Visibility ( mi km ) Precip ( " mm )
12:58 am 00:58 Clear 46 7.5 19 -7.1 35 35 SW 7 11 29.58 1002 10 16 0.00 0.00
1:58 am 01:58 Clear 44 6.8 20 -6.8 38 38 Calm 29.59 1002 10 16 0.00 0.00
2:58 am 02:58 Clear 44 6.6 19 -7.1 37 37 WSW 3 6 29.57 1001 10 16 0.00 0.00
3:58 am 03:58 Clear 44 6.7 19 -7.2 37 37 SSE 5 7 29.58 1002 10 16 0.00 0.00
4:58 am 04:58 Clear 41 5.2 18 -7.7 39 39 SSE 10 17 29.61 1003 10 16 0.00 0.00
5:58 am 05:58 Clear 38 3.4 21 -6.2 50 50 Calm 29.65 1004 10 16 0.00 0.00
6:58 am 06:58 Sunny 36 2.1 22 -5.5 58 58 Calm 29.68 1005 10 16 0.00 0.00
7:58 am 07:58 Sunny 40 4.3 26 -3.5 57 57 SSE 10 17 29.68 1005 10 16 0.00 0.00
8:58 am 08:58 Sunny 43 5.9 28 -2.4 56 56 E 5 7 29.66 1005 10 16 0.00 0.00
9:58 am 09:58 Sunny 45 7.3 25 -3.8 46 46 SSE 16 26 29.64 1004 10 16 0.00 0.00
10:58 am 10:58 Sunny 46 8 28 -2.1 49 49 SSE 18 30 29.63 1004 10 16 0.00 0.00
11:58 am 11:58 Sunny 49 9.6 24 -4.6 37 37 SSE 21 33 29.58 1002 10 16 0.00 0.00
12:58 pm 12:58 Mostly Sunny 53 11.6 21 -5.9 29 29 SE 25 41 29.52 1000 10 16 0.00 0.00
1:58 pm 13:58 Sunny 54 12.1 22 -5.8 28 28 SE 26 43 29.51 999 10 16 0.00 0.00
2:58 pm 14:58 Mostly Sunny 55 12.5 23 -4.9 30 30 SSE 15 24 29.47 998 10 16 0.00 0.00
3:58 pm 15:58 Mostly Sunny 55 12.7 20 -6.9 25 25 SE 15 24 29.44 997 10 16 0.00 0.00
4:58 pm 16:58 Mostly Sunny 55 12.8 18 -7.6 24 24 SSE 18 30 29.42 996 10 16 0.00 0.00
5:58 pm 17:58 Mostly Sunny 54 12.3 21 -6.3 27 27 SSE 16 26 29.44 997 10 16 0.00 0.00
6:58 pm 18:58 Partly Cloudy 52 11.1 23 -5 32 32 Calm 29.47 998 10 16 0.00 0.00
7:58 pm 19:58 Mostly Cloudy 51 10.8 20 -6.8 29 29 Calm 29.41 996 10 16 0.00 0.00
8:58 pm 20:58 Clear 55 12.8 13 -10.7 18 18 SSE 18 30 29.37 995 10 16 0.00 0.00
9:58 pm 21:58 Clear 55 12.5 14 -9.8 20 20 SSE 26 43 29.35 994 10 16 0.00 0.00
10:58 pm 22:58 Mostly Clear 54 12.1 13 -10.7 19 19 SSE 15 24 29.36 994 10 16 0.00 0.00
11:58 pm 23:58 Clear 53 11.8 13 -10.5 20 20 SE 21 33 29.32 993 10 16 0.00 0.00

Powered by AerisWeather